Weather in Inhulets

Ukraine / Dnipropetrovsk Region     47°40′44″N   33°10′13″E
temp.,
°C
wind,
m/s
gust,
m/s
humid.,
%
clouds,
%
prec.,
mm/h
press.,
hPa
HPBL,
m
19 september, sun
sun1900:00+16ssw149299 1.1 1007216
03:00+16nw368875 1.2 1008223
06:00+14wnw3393100 0.0 100868
09:00+18wnw347056 0.0 1008463
12:00+21w45495 0.0 10081322
15:00+23wsw563716 0.0 10082072
18:00+21wsw474127 0.0 1007493
21:00+18sw48609 0.0 1008244
20 september, mon
mon2000:00+14nw597464 0.1 1009441
03:00+11w5107029 0.1 1010534
06:00+9w49745 0.0 1011424
09:00+12w69616 0.0 1011869
12:00+16w7104635 0.0 10121466
15:00+15w795024 0.0 10121245
18:00+14wnw685498 0.0 10121242
21:00+11w3567100 0.0 1014203
21 september, tue
tue2100:00+11wnw3771100 0.0 1014457
03:00+9wnw587294 0.0 1015676
06:00+7wsw3777100 0.0 1015249
09:00+10wnw685949 0.0 10151209
12:00+11wnw785794 0.0 10161262
15:00+8wnw7981100 0.0 1017824
18:00+8wnw61074100 0.0 10181061
21:00+8wnw6975100 0.1 1019954
22 september, wed
wed2200:00+8wnw5876100 0.0 1019837
03:00+8wnw5778100 0.0 1018918
06:00+8wnw4779100 0.0 1018701
09:00+8wnw4673100 0.0 1018709
12:00+10wnw5559100 0.0 10171163
15:00+10wnw4554100 0.1 10161304
18:00+9wnw3459100 0.1 10161031
21:00+9nw3466100 0.1 1016693
23 september, thu
thu2300:00+8wnw2369100 0.0 1016237
03:00+7nw1271100 0.0 1015271
06:00+7nw2278100 0.2 1014581
09:00+7wnw227999 0.3 1015706
12:00+9nw2267100 0.1 10151015
15:00+10nnw3363100 0.3 1015941
18:00+10nnw2358100 0.1 1015913
21:00+9nw3568100 0.2 1016297